Regional Weather Roundup
Issued by NWS

Home | Current Version | Previous Version | Graphics & Text | Print | Product List | Glossary On
Versions: 1 2 3 4 5 6 7 8 9 10 11 12 13 14 15 16 17 18 19 20 21 22 23 24 25 26 27 28 29 30 31 32 33 34 35 36 37 38 39 40 41 42 43 44 45 46 47 48 49 50
000
ASUS43 KLOT 251202
RWRIL

ILLINOIS REGIONAL WEATHER ROUNDUP
NATIONAL WEATHER SERVICE CHICAGO/ROMEOVILLE IL
700 AM CDT SAT MAR 25 2017

NOTE: "FAIR" INDICATES FEW OR NO CLOUDS BELOW 12,000 FEET WITH NO
SIGNIFICANT WEATHER AND/OR OBSTRUCTIONS TO VISIBILITY.

* THESE STATIONS ARE NOT UNDER NWS QUALITY CONTROL. THEY ALSO MAY NOT
  REPORT WEATHER SUCH AS PRECIPITATION OR FOG.

ILZ001-002-007-009-015-016-024-251300-
NORTHWEST ILLINOIS

CITY           SKY/WX    TMP DP  RH WIND       PRES   REMARKS
MOLINE         LGT RAIN  43  40  89 NE17G25   29.92F
6HR MIN TEMP:  43; 6HR MAX TEMP:  48; 6HR PCP:  0.04;

STERLING*      LGT RAIN  40  39  97 NE14G26   29.97F FOG
SAVANNA*       CLOUDY    39  37  93 NE13      29.99R WCI  32
$$

ILZ003-004-008-010-011-017-018-251300-
NORTH CENTRAL ILLINOIS

CITY           SKY/WX    TMP DP  RH WIND       PRES   REMARKS
ROCKFORD       CLOUDY    40  37  89 NE13      30.06R
6HR MIN TEMP:  40; 6HR MAX TEMP:  41; 6HR PCP:  0.08;

FREEPORT*      LGT RAIN  37  37  97 NE17      30.04F WCI  28
ROCHELLE*      CLOUDY    39  38  97 NE21      30.01F WCI  29
DE KALB*       LGT RAIN  40  39  97 NE14      30.03F
PERU*          RAIN      42  40  95 E17       29.98R
$$

ILZ005-006-012>014-019>023-251300-
NORTHEAST ILLINOIS

CITY           SKY/WX    TMP DP  RH WIND       PRES   REMARKS
CHICAGO-OHARE  LGT RAIN  41  38  89 N14       30.05R FOG
6HR MIN TEMP:  41; 6HR MAX TEMP:  42; 6HR PCP:  0.16;

CHICAGO-MIDWAY LGT RAIN  42  40  92 NE9G21    30.05R
6HR MIN TEMP:  40; 6HR MAX TEMP:  42; 6HR PCP:  0.02;

AURORA         LGT RAIN  42  39  89 NE13      30.02F FOG
6HR MIN TEMP:  42; 6HR MAX TEMP:  44; 6HR PCP:  0.15;

LANSING*       HVY RAIN  40  40 100 NE6       30.05R
JOLIET*        RAIN      43  42  97 NE6       30.03S
WAUKEGAN       LGT RAIN  38  38 100 NE14      30.07S WCI  30
6HR MIN TEMP:  37; 6HR MAX TEMP:  38; 6HR PCP:  0.10;

DUPAGE AIRPORT HVY RAIN  41  41 100 NE9       30.04R FOG
6HR MIN TEMP:  40; 6HR MAX TEMP:  42; 6HR PCP:  0.34;

WHEELING       RAIN      40  40 100 NE8       30.08R FOG
6HR MIN TEMP:  38; 6HR MAX TEMP:  40; 6HR PCP:  0.13;

MORRIS*        RAIN      42  41  95 NE8       30.00S
NORTHERLY ISL    N/A     39  38  96 N13         N/A  WCI  31
$$

LMZ740>746-251300-
SOUTHERN LAKE MICHIGAN

STATION/POSITION SKY/WX   TEMP    WIND        PRES    VSBY  WAVE
                          AIR SEA DIR/SP/G                  HT/PER
                          (F)     (DEG/KT/KT) (MB)    (MI)  (FT/S)
HARRISON CRIB                     360/ 16/ 18   N/A
BURNHAM HARBOR                    350/ 12/ 15   N/A
CALUMET HARBOR                    330/ 10/ 13 1016.9F
BURNS HARBOR               39     280/  5/  6 1017.6S
MICHIGAN CITY              42     120/  8/  9   N/A
$$

ILZ025>027-034>036-040-047-049-050-058-095>099-251300-
WEST-CENTRAL ILLINOIS

CITY           SKY/WX    TMP DP  RH WIND       PRES   REMARKS
QUINCY         CLOUDY    56  56 100 E5        29.81S FOG
GALESBURG*     LGT RAIN  45  45 100 NE15G23   29.86F
MACOMB*        LGT RAIN  47  47  99 NE17      29.85F
JACKSONVILLE*  MOCLDY    57  56  96 E12       29.80R
PITTSFIELD*    CLOUDY    58  56  96 S7        29.83R
$$

ILZ028>032-037-038-041>044-048-051>054-059>061-251300-
CENTRAL ILLINOIS

CITY           SKY/WX    TMP DP  RH WIND       PRES   REMARKS
PONTIAC        CLOUDY    44  44  99 NE22      29.95F FOG
BLOOMINGTON    LGT RAIN  46  45  96 E17       29.91F FOG
DECATUR        CLOUDY    62  54  74 SE18G25   29.85F
PEORIA         LGT RAIN  47  46  97 E16       29.88F FOG
6HR MIN TEMP:  47; 6HR MAX TEMP:  58; 6HR PCP:  0.60;

SPRINGFIELD    MOCLDY    59  56  89 E12       29.79F
6HR MIN TEMP:  59; 6HR MAX TEMP:  65; 6HR PCP:  0.39;

TAYLORVILLE    NOT AVBL
$$

ILZ033-039-045-046-055>057-062-063-251300-
EAST-CENTRAL ILLINOIS

CITY           SKY/WX    TMP DP  RH WIND       PRES   REMARKS
CHAMPAIGN      CLOUDY    60  53  77 SE13      29.90F
RANTOUL*       CLOUDY    60  56  85 E8        29.93S
MATTOON        MOCLDY    63  55  75 S23G29    29.88F
$$

ILZ079-100>102-251300-
SOUTHWEST ILLINOIS

CITY           SKY/WX    TMP DP  RH WIND       PRES   REMARKS
ALTON          CLOUDY    55  55 100 S12       29.85R
CAHOKIA*       CLOUDY    57  54  89 S9        29.86R
SPARTA*        MOCLDY    55  52  89 S12G18    29.89R
$$

ILZ064>066-069>071-074>076-080>082-084>086-088>090-092>094-251300-
SOUTH-CENTRAL ILLINOIS

CITY           SKY/WX    TMP DP  RH WIND       PRES   REMARKS
CARBONDALE     CLOUDY    56  54  93 SE10      29.92R
6HR MIN TEMP:  55; 6HR MAX TEMP:  66; 6HR PCP:  0.04;

CAIRO*         LGT RAIN  54  54  98 SE8       29.96F
EFFINGHAM*     CLOUDY    63  56  77 E14G24    29.88F
MARION         CLOUDY    57  57 100 S12       29.95R
MT. VERNON     MOCLDY    58  53  84 S14       29.93R
CENTRALIA*     CLOUDY    60  56  89 S17       29.90R
SALEM*         CLOUDY    61  55  80 S8        29.89R
$$

ILZ067-068-072-073-078-083-087-091-251300-
SOUTHEAST ILLINOIS

CITY           SKY/WX    TMP DP  RH WIND       PRES   REMARKS
LAWRENCEVILLE  MOCLDY    63  54  72 S20       29.97S
FLORA*         CLOUDY    61  56  83 S13       29.90F
FAIRFIELD*     CLOUDY    59  54  83 S9        29.93R
HARRISBURG*    CLOUDY    57  55  91 SE10      29.98R
ROBINSON*      CLOUDY    63  53  70 S17G24    29.96S
CARMI*         CLOUDY    59  55  86 S14       29.97R
$$

ABBREVIATIONS USED IN REMARKS
   TC - TEMPERATURE IN CELSIUS
  WCI - WIND CHILL INDEX
   HX - HEAT INDEX
  VSB - VISIBILITY
$$





USA.gov is the U.S. government's official web portal to all federal, state and local government web resources and services.